Location: Chiroubles
(46.1812°N, 4.6660°E)
Time: 00:15:12
(UTC+00:00)

CSL-04 Deb - Pass Details

Date: 12 December 2021
Orbit: 623 x 716 km, 98.3° (Epoch: 23 January)

Event Time Altitude Azimuth Distance (km) Brightness Sun altitude
Rises 06:25:50 0° 33° (NNE) 3,090 ? -8.2°
Reaches altitude 10° 06:29:24 10° 61° (ENE) 2,182 ? -7.7°
Maximum altitude 06:31:34 13° 88° (E) 1,990 ? -7.3°
Drops below altitude 10° 06:33:45 10° 116° (ESE) 2,190 ? -7.0°
Sets 06:37:19 0° 144° (SE) 3,110 ? -6.4°
